Location: Lecco
(45.8566°N, 9.3977°E)
Time: 21:24:41
(UTC+02:00)

Vanguard 1 Rocket - Pass Details

Date: 22 August 2020
Orbit: 655 x 4221 km, 34.3° (Epoch: 30 September)

Event Time Altitude Azimuth Distance (km) Brightness Sun altitude
Exits shadow 05:52:22 - 245° (WSW) 5,822 10.8 -7.1°
Reaches altitude 10° 05:53:35 10° 243° (WSW) 5,478 10.7 -7.0°
Maximum altitude 06:06:27 41° 181° (S) 2,258 9.2 -4.9°
Drops below altitude 10° 06:13:30 10° 113° (ESE) 3,037 10.9 -3.8°
Sets 06:15:46 0° 105° (ESE) 3,725 11.6 -3.4°
